Back to catalog

STARLINK-34835

AliveCommunicationsVLEO
NORAD 65336·PAYLOAD·🇺🇸 United States

Launched Aug 27, 2025 from Cape Canaveral Space Force Station

Loading…

Next Passes (next 24 hours)

TLE

FreshSource: CelesTrak SupGP

Epoch: Sep 15, 2026, 03:55 UTC

1 65336C 25189P   26258.16368056  .00015974  00000+0  47211-3 0  2587
2 65336  53.1594  44.5992 0001167  91.8523 321.1940 15.34372888    18

Track STARLINK-34835 in real time with AllMySat

Download on the App Store